Simultaneous Nadir Overpasses (SNOs) Predictions

Prediction of SNOs between GOES-16 and AQUA Satellite Orbit:

Table of predicted SNOs for the next 14.0 days since TLE Epoch: 3/26/2022
Index Date Time (GOES-16) GOES-16 Lat,Lon AQUA Lat,Lon Distance(km) Time Diff (sec)
1 03/27/2022 18:33:47 0.05, -75.22 0.32, -73.85 155.26 80
2 03/28/2022 06:55:00 -0.05, -75.22 0.79, -79.00 430.46 80
3 03/29/2022 18:21:28 0.05, -75.24 0.98, -70.86 497.27 80
4 03/30/2022 06:42:41 -0.04, -75.23 0.13, -76.01 88.20 80
5 04/01/2022 06:27:42 -0.04, -75.25 -0.55, -73.02 254.97 80
6 04/01/2022 18:49:04 0.04, -75.27 -0.57, -78.19 332.50 80
7 04/03/2022 18:39:24 0.04, -75.30 0.07, -75.20 11.56 80
8 04/05/2022 18:27:04 0.04, -75.33 0.71, -72.20 356.09 80
9 04/06/2022 06:48:17 -0.04, -75.33 0.39, -77.34 228.51 80
10 04/08/2022 06:33:17 -0.03, -75.37 -0.28, -74.35 116.58 80
11 04/08/2022 18:54:37 0.03, -75.38 -0.88, -79.51 470.77 80
